This is the latest recevied weather packets stored in our database for station/object N1HQ. If no packets are shown the sender has not sent any weather packets the latest 10 day(s).
| Time | Temp. | Humidity | Pressure | Rain* | Wind** | Luminosity | Snow |
|---|---|---|---|---|---|---|---|
| 1777579113 | 26.11° C | 75% | 1008.7 hPa | 0 mm | - | - | - |
| 1777578818 | 26.11° C | 78% | 1008.8 hPa | 0 mm | - | - | - |
| 1777578568 | 26.11° C | 77% | 1008.9 hPa | 0 mm | - | - | - |
| 1777578268 | 26.11° C | 78% | 1009.1 hPa | 0 mm | - | - | - |
| 1777577978 | 26.11° C | 77% | 1009 hPa | 0 mm | - | - | - |
| 1777577725 | 26.11° C | 78% | 1009 hPa | 0 mm | - | - | - |
| 1777577429 | 26.11° C | 77% | 1009.1 hPa | 0 mm | - | - | - |
| 1777577188 | 26.11° C | 77% | 1009.2 hPa | 0 mm | - | - | - |
| 1777576945 | 26.11° C | 78% | 1009.2 hPa | 0 mm | - | - | - |
| 1777576653 | 26.11° C | 80% | 1009.1 hPa | 0 mm | - | - | - |
| 1777576363 | 26.11° C | 79% | 1009.1 hPa | 0 mm | - | - | - |
| 1777576105 | 26.67° C | 78% | 1009.2 hPa | 0 mm | - | - | - |
| 1777575843 | 26.67° C | 76% | 1009.3 hPa | 0 mm | - | - | - |
| 1777575543 | 27.22° C | 75% | 1009.2 hPa | 0 mm | - | - | - |
| 1777575253 | 27.78° C | 76% | 1009.2 hPa | 0 mm | - | - | - |
| 1777574995 | 27.78° C | 74% | 1009.1 hPa | 0 mm | - | - | - |
| 1777574753 | 27.78° C | 73% | 1009.1 hPa | 0 mm | - | - | - |
| 1777574503 | 27.78° C | 73% | 1009.1 hPa | 0 mm | - | - | - |
| 1777574233 | 27.78° C | 74% | 1009.2 hPa | 0 mm | - | - | - |
| 1777573950 | 28.33° C | 73% | 1009.1 hPa | 0 mm | - | - | - |
| 1777573683 | 28.33° C | 72% | 1009.1 hPa | 0 mm | - | - | - |
| 1777573413 | 28.33° C | 71% | 1009 hPa | 0 mm | - | - | - |
| 1777573163 | 28.89° C | 70% | 1009.1 hPa | 0 mm | - | - | - |
| 1777572916 | 28.89° C | 70% | 1009.1 hPa | 0 mm | - | - | - |
| 1777572658 | 28.89° C | 69% | 1009.2 hPa | 0 mm | - | - | - |
* Rain latest hour (hover to see other rain measurements)
** Current wind speed in m/s (hover to see current wind gust speed)